sat.trackr.live / text

‹ back to catalog

STARLINK-35743

NORAD 66578 · 2025-268X

PAYLOAD ACTIVE UNKNOWN

§ Identity

Operator
Country
US
Launch date
2025-11-21
Launch site
AFETR
Launch vehicle
Mass (kg)
RCS (m²)

Purposes: comms

External: N2YO · Heavens-Above · Gunter

§ Orbital elements

Epoch: 2026-09-20T21:23:02.293728Z

Period
94.27 min
Inclination
43.0037°
Eccentricity
0.0002277
Mean motion
15.27590927 rev/d
Perigee alt
481.5 km
Apogee alt
484.6 km
Semi-major
6,861.2 km
B*
5.5427e-4
RAAN
324.6347°
Arg perigee
267.1829°
Mean anomaly
92.8762°
Rev number
4,781

§ Raw data

STARLINK-357431 66578U 25268X   26263.89099877  .00015027  00000+0  55427-3 0  99912 66578  43.0037 324.6347 0002277 267.1829  92.8762 15.27590927 47814

JSON: /api/v1/satellites/66578 · /tle

For live sub-satellite position, see the globe view (requires WebGL).

§ Visibility from observer

Set your observer location to see the next 7 days of passes ≥ 10°. The values pass through the URL so the page stays shareable.

No JS? Fill the form by hand. The geolocation button needs JavaScript.